,,,PA_Meas_PMT16A,,PR_Meas_QMR101_102,,RH_Meas_QMH101,,SR_Meas_QMS101,,TA_Meas_QMH101,,GenWind,,GenWind,
date,time,status,PA,status,PR,status,RH,status,SR,status,TA,status,DirAvg,status,SpdAvg,
2008-05-13, 00:00:04,VALID,1009.71,VALID,0,VALID,94.7347,VALID,0,VALID,22.9554,VALID,7,VALID,0,
2008-05-13, 00:01:04,VALID,1009.73,VALID,0,VALID,94.7881,VALID,0,VALID,22.9342,VALID,7,VALID,0,
2008-05-13, 00:02:04,VALID,1009.74,VALID,0,VALID,94.75,VALID,0,VALID,22.9342,VALID,7,VALID,0,
2008-05-13, 00:03:04,VALID,1009.73,VALID,0,VALID,94.7042,VALID,0,VALID,22.8952,VALID,7,VALID,0,
2008-05-13, 00:04:04,VALID,1009.72,VALID,0,VALID,94.7119,VALID,0,VALID,22.8562,VALID,7,VALID,0,
2008-05-13, 00:05:04,VALID,1009.66,VALID,0,VALID,94.75,VALID,0,VALID,22.8757,VALID,7,VALID,0.210156,
2008-05-13, 00:06:04,VALID,1009.65,VALID,0,VALID,94.7424,VALID,0,VALID,22.8562,VALID,7,VALID,0.200781,
2008-05-13, 00:07:04,VALID,1009.67,VALID,0,VALID,94.811,VALID,0,VALID,22.8562,VALID,7,VALID,0.136328,
2008-05-13, 00:08:04,VALID,1009.66,VALID,0,VALID,94.8873,VALID,0,VALID,22.8562,VALID,7,VALID,0.278125,
2008-05-13, 00:09:04,VALID,1009.65,VALID,0,VALID,95.0093,VALID,0,VALID,22.8562,VALID,7,VALID,0.293359,
2008-05-13, 00:10:04,VALID,1009.65,VALID,0,VALID,94.9483,VALID,0,VALID,22.8757,VALID,7,VALID,0.301953,
2008-05-13, 00:11:04,VALID,1009.6,VALID,0,VALID,94.9101,VALID,0,VALID,22.8562,VALID,7,VALID,0.210156,
2008-05-13, 00:12:04,VALID,1009.58,VALID,0,VALID,94.8568,VALID,0,VALID,22.8155,VALID,7,VALID,0.150781,
2008-05-13, 00:13:04,VALID,1009.57,VALID,0,VALID,94.7729,VALID,0,VALID,22.7783,VALID,7,VALID,0.268359,
2008-05-13, 00:14:04,VALID,1009.56,VALID,0,VALID,94.8034,VALID,0,VALID,22.7783,VALID,7,VALID,0.287109,
2008-05-13, 00:15:04,VALID,1009.58,VALID,0,VALID,94.8262,VALID,0,VALID,22.7588,VALID,7,VALID,0.269531,
2008-05-13, 00:16:04,VALID,1009.57,VALID,0,VALID,94.8262,VALID,0,VALID,22.7394,VALID,7,VALID,0.217187,
2008-05-13, 00:17:04,VALID,1009.6,VALID,0,VALID,94.7881,VALID,0,VALID,22.7199,VALID,7,VALID,0.00351562,
2008-05-13, 00:18:04,VALID,1009.61,VALID,0,VALID,94.8491,VALID,0,VALID,22.7004,VALID,7,VALID,0.168359,
2008-05-13, 00:19:04,VALID,1009.6,VALID,0,VALID,94.9254,VALID,0,VALID,22.7199,VALID,7,VALID,0.178125,
2008-05-13, 00:20:04,VALID,1009.57,VALID,0,VALID,94.933,VALID,0,VALID,22.7004,VALID,7,VALID,0.122266,
2008-05-13, 00:21:04,VALID,1009.57,VALID,0,VALID,94.9025,VALID,0,VALID,22.6809,VALID,7,VALID,0.0953125,
2008-05-13, 00:22:04,VALID,1009.56,VALID,0,VALID,94.872,VALID,0,VALID,22.6614,VALID,7,VALID,0.260938,
2008-05-13, 00:23:04,VALID,1009.53,VALID,0,VALID,94.9178,VALID,0,VALID,22.6402,VALID,7,VALID,0.222266,
2008-05-13, 00:24:04,VALID,1009.52,VALID,0,VALID,94.8796,VALID,0,VALID,22.642,VALID,7,VALID,0.194922,
2008-05-13, 00:25:04,VALID,1009.54,VALID,0,VALID,94.9101,VALID,0,VALID,22.642,VALID,7,VALID,0.202344,
2008-05-13, 00:26:04,VALID,1009.52,VALID,0,VALID,94.9025,VALID,0,VALID,22.642,VALID,7,VALID,0.204297,
2008-05-13, 00:27:04,VALID,1009.53,VALID,0,VALID,94.9025,VALID,0,VALID,22.6242,VALID,7,VALID,0.133594,
2008-05-13, 00:28:04,VALID,1009.54,VALID,0,VALID,94.9025,VALID,0,VALID,22.6047,VALID,7,VALID,0.183203,
2008-05-13, 00:29:04,VALID,1009.52,VALID,0,VALID,94.9483,VALID,0,VALID,22.603,VALID,7,VALID,0.233594,
2008-05-13, 00:30:04,VALID,1009.5,VALID,0,VALID,94.9406,VALID,0,VALID,22.6047,VALID,7,VALID,0.20625,
2008-05-13, 00:31:04,VALID,1009.51,VALID,0,VALID,94.9254,VALID,0,VALID,22.5835,VALID,7,VALID,0.240625,
2008-05-13, 00:32:04,VALID,1009.51,VALID,0,VALID,94.9559,VALID,0,VALID,22.564,VALID,7,VALID,0.208984,
2008-05-13, 00:33:04,VALID,1009.5,VALID,0,VALID,94.9635,VALID,0,VALID,22.5852,VALID,7,VALID,0.206641,
2008-05-13, 00:34:04,VALID,1009.52,VALID,0,VALID,94.9788,VALID,0,VALID,22.5852,VALID,7,VALID,0.0867188,
2008-05-13, 00:35:04,VALID,1009.53,VALID,0,VALID,95.0779,VALID,0,VALID,22.564,VALID,7,VALID,0.170312,
2008-05-13, 00:36:04,VALID,1009.53,VALID,0,VALID,95.1923,VALID,0,VALID,22.6047,VALID,7,VALID,0.3,
2008-05-13, 00:37:04,VALID,1009.56,VALID,0,VALID,95.177,VALID,0,VALID,22.6047,VALID,7,VALID,0.285156,
2008-05-13, 00:38:04,VALID,1009.56,VALID,0,VALID,95.1542,VALID,0,VALID,22.603,VALID,7,VALID,0.300781,
2008-05-13, 00:39:04,VALID,1009.55,VALID,0,VALID,95.1313,VALID,0,VALID,22.5852,VALID,7,VALID,0.434375,
2008-05-13, 00:40:04,VALID,1009.52,VALID,0,VALID,95.1389,VALID,0,VALID,22.6047,VALID,7,VALID,0.273438,
2008-05-13, 00:41:04,VALID,1009.48,VALID,0,VALID,95.116,VALID,0,VALID,22.5446,VALID,7,VALID,0.084375,
2008-05-13, 00:42:04,VALID,1009.45,VALID,0,VALID,95.1008,VALID,0,VALID,22.5658,VALID,7,VALID,0,
2008-05-13, 00:43:04,VALID,1009.44,VALID,0,VALID,95.0474,VALID,0,VALID,22.5463,VALID,7,VALID,0.0292969,
2008-05-13, 00:44:04,VALID,1009.41,VALID,0,VALID,95.0245,VALID,0,VALID,22.5073,VALID,7,VALID,0.00429688,
2008-05-13, 00:45:04,VALID,1009.44,VALID,0,VALID,95.0398,VALID,0,VALID,22.4861,VALID,7,VALID,0,
2008-05-13, 00:46:04,VALID,1009.44,VALID,0,VALID,95.0703,VALID,0,VALID,22.4878,VALID,7,VALID,0,
2008-05-13, 00:47:04,VALID,1009.47,VALID,0,VALID,95.0855,VALID,0,VALID,22.4472,VALID,7,VALID,0,
2008-05-13, 00:48:04,VALID,1009.46,VALID,0,VALID,95.1465,VALID,0,VALID,22.4667,VALID,7,VALID,0,
2008-05-13, 00:49:04,VALID,1009.43,VALID,0,VALID,95.2075,VALID,0,VALID,22.4878,VALID,7,VALID,0,
2008-05-13, 00:50:04,VALID,1009.42,VALID,0,VALID,95.2304,VALID,0,VALID,22.4861,VALID,7,VALID,0,
2008-05-13, 00:51:04,VALID,1009.4,VALID,0,VALID,95.2762,VALID,0,VALID,22.5073,VALID,7,VALID,0.0128906,
2008-05-13, 00:52:04,VALID,1009.39,VALID,0,VALID,95.2914,VALID,0,VALID,22.5268,VALID,7,VALID,0,
2008-05-13, 00:53:04,VALID,1009.34,VALID,0,VALID,95.2838,VALID,0,VALID,22.5268,VALID,7,VALID,0,
2008-05-13, 00:54:04,VALID,1009.37,VALID,0,VALID,95.2609,VALID,0,VALID,22.4861,VALID,7,VALID,0,
2008-05-13, 00:55:04,VALID,1009.31,VALID,0,VALID,95.2533,VALID,0,VALID,22.5073,VALID,7,VALID,0,
2008-05-13, 00:56:04,VALID,1009.31,VALID,0,VALID,95.2609,VALID,0,VALID,22.4861,VALID,7,VALID,0,
2008-05-13, 00:57:04,VALID,1009.27,VALID,0,VALID,95.2762,VALID,0.105969,VALID,22.4844,VALID,7,VALID,0.0117188,
2008-05-13, 00:58:04,VALID,1009.26,VALID,0,VALID,95.2914,VALID,0.105969,VALID,22.4861,VALID,7,VALID,0.141797,
2008-05-13, 00:59:04,VALID,1009.25,VALID,0,VALID,95.2838,VALID,0.105969,VALID,22.5251,VALID,7,VALID,0.133203,
2008-05-13, 01:00:04,VALID,1009.26,VALID,0,VALID,95.2914,VALID,0.105969,VALID,22.5056,VALID,7,VALID,0,
2008-05-13, 01:01:04,VALID,1009.28,VALID,0,VALID,95.3067,VALID,0,VALID,22.5056,VALID,7,VALID,0,
2008-05-13, 01:02:04,VALID,1009.23,VALID,0,VALID,95.3219,VALID,0.105969,VALID,22.4861,VALID,7,VALID,0,
2008-05-13, 01:03:04,VALID,1009.26,VALID,0,VALID,95.299,VALID,0.105969,VALID,22.5056,VALID,7,VALID,0.0921875,
2008-05-13, 01:04:04,VALID,1009.23,VALID,0,VALID,95.3067,VALID,0.105969,VALID,22.5056,VALID,7,VALID,0.214062,
2008-05-13, 01:05:04,VALID,1009.22,VALID,0,VALID,95.3448,VALID,0.105969,VALID,22.5056,VALID,7,VALID,0.172656,
2008-05-13, 01:06:04,VALID,1009.21,VALID,0,VALID,95.3295,VALID,0.105969,VALID,22.4861,VALID,7,VALID,0.116016,
2008-05-13, 01:07:04,VALID,1009.18,VALID,0,VALID,95.3067,VALID,0.105969,VALID,22.5056,VALID,7,VALID,0.222266,
2008-05-13, 01:08:04,VALID,1009.19,VALID,0,VALID,95.3372,VALID,0.105969,VALID,22.5056,VALID,7,VALID,0.233203,
2008-05-13, 01:09:04,VALID,1009.24,VALID,0,VALID,95.3219,VALID,0.105969,VALID,22.4844,VALID,7,VALID,0.0898438,
2008-05-13, 01:10:04,VALID,1009.21,VALID,0,VALID,95.299,VALID,0.105969,VALID,22.4844,VALID,7,VALID,0,
2008-05-13, 01:11:04,VALID,1009.26,VALID,0,VALID,95.2838,VALID,0,VALID,22.5056,VALID,7,VALID,0,
2008-05-13, 01:12:04,VALID,1009.26,VALID,0,VALID,95.3295,VALID,0,VALID,22.4667,VALID,7,VALID,0,
2008-05-13, 01:13:04,VALID,1009.23,VALID,0,VALID,95.3067,VALID,0,VALID,22.4667,VALID,7,VALID,0,
2008-05-13, 01:14:04,VALID,1009.23,VALID,0,VALID,95.3295,VALID,0,VALID,22.4667,VALID,7,VALID,0,
2008-05-13, 01:15:04,VALID,1009.21,VALID,0,VALID,95.36,VALID,0,VALID,22.4667,VALID,7,VALID,0,
2008-05-13, 01:16:04,VALID,1009.22,VALID,0,VALID,95.36,VALID,0,VALID,22.4667,VALID,7,VALID,0,
2008-05-13, 01:17:04,VALID,1009.22,VALID,0,VALID,95.3448,VALID,0,VALID,22.4667,VALID,7,VALID,0,
2008-05-13, 01:18:04,VALID,1009.22,VALID,0,VALID,95.3067,VALID,0.105969,VALID,22.4667,VALID,7,VALID,0,
2008-05-13, 01:19:04,VALID,1009.23,VALID,0,VALID,95.2685,VALID,0,VALID,22.4082,VALID,7,VALID,0,
2008-05-13, 01:20:04,VALID,1009.24,VALID,0,VALID,95.2533,VALID,0,VALID,22.4082,VALID,7,VALID,0,
2008-05-13, 01:21:04,VALID,1009.25,VALID,0,VALID,95.2609,VALID,0,VALID,22.4082,VALID,7,VALID,0,
2008-05-13, 01:22:04,VALID,1009.25,VALID,0,VALID,95.3067,VALID,0,VALID,22.4082,VALID,7,VALID,0,
2008-05-13, 01:23:04,VALID,1009.26,VALID,0,VALID,95.3829,VALID,0,VALID,22.3887,VALID,7,VALID,0,
2008-05-13, 01:24:04,VALID,1009.25,VALID,0,VALID,95.3982,VALID,0,VALID,22.4082,VALID,7,VALID,0,
2008-05-13, 01:25:04,VALID,1009.25,VALID,0,VALID,95.3753,VALID,0,VALID,22.4082,VALID,7,VALID,0,
2008-05-13, 01:26:04,VALID,1009.23,VALID,0,VALID,95.3372,VALID,0,VALID,22.3887,VALID,7,VALID,0.113672,
2008-05-13, 01:27:04,VALID,1009.23,VALID,0,VALID,95.3372,VALID,0,VALID,22.3887,VALID,7,VALID,0.192969,
2008-05-13, 01:28:04,VALID,1009.18,VALID,0,VALID,95.3982,VALID,0,VALID,22.4082,VALID,7,VALID,0.255859,
2008-05-13, 01:29:04,VALID,1009.18,VALID,0,VALID,95.3753,VALID,0,VALID,22.4082,VALID,7,VALID,0.139453,
2008-05-13, 01:30:04,VALID,1009.2,VALID,0,VALID,95.3677,VALID,0,VALID,22.3887,VALID,7,VALID,0.273047,
2008-05-13, 01:31:04,VALID,1009.19,VALID,0,VALID,95.3677,VALID,0,VALID,22.3887,VALID,7,VALID,0.216016,
2008-05-13, 01:32:04,VALID,1009.19,VALID,0,VALID,95.3677,VALID,0,VALID,22.3887,VALID,7,VALID,0.239063,
2008-05-13, 01:33:04,VALID,1009.21,VALID,0,VALID,95.3829,VALID,0,VALID,22.4082,VALID,7,VALID,0.134766,
2008-05-13, 01:34:04,VALID,1009.17,VALID,0,VALID,95.3982,VALID,0,VALID,22.3887,VALID,7,VALID,0,
2008-05-13, 01:35:04,VALID,1009.14,VALID,0,VALID,95.3829,VALID,0,VALID,22.4294,VALID,7,VALID,0,
2008-05-13, 01:36:04,VALID,1009.14,VALID,0,VALID,95.3829,VALID,0,VALID,22.3887,VALID,7,VALID,0.210156,
2008-05-13, 01:37:04,VALID,1009.12,VALID,0,VALID,95.3524,VALID,0,VALID,22.3887,VALID,7,VALID,0.289844,
2008-05-13, 01:38:04,VALID,1009.09,VALID,0,VALID,95.3372,VALID,0,VALID,22.3887,VALID,7,VALID,0.0308594,
2008-05-13, 01:39:04,VALID,1009.11,VALID,0,VALID,95.3448,VALID,0,VALID,22.3887,VALID,7,VALID,0.000390625,
2008-05-13, 01:40:04,VALID,1009.09,VALID,0,VALID,95.3295,VALID,0,VALID,22.3887,VALID,7,VALID,0,
2008-05-13, 01:41:04,VALID,1009.1,VALID,0,VALID,95.3372,VALID,0,VALID,22.3887,VALID,7,VALID,0,
2008-05-13, 01:42:04,VALID,1009.11,VALID,0,VALID,95.3448,VALID,0,VALID,22.3887,VALID,7,VALID,0,
2008-05-13, 01:43:04,VALID,1009.06,VALID,0,VALID,95.3677,VALID,0,VALID,22.4082,VALID,7,VALID,0,
2008-05-13, 01:44:04,VALID,1009.06,VALID,0,VALID,95.3905,VALID,0,VALID,22.4277,VALID,7,VALID,0,
2008-05-13, 01:45:04,VALID,1009.05,VALID,0,VALID,95.4516,VALID,0,VALID,22.4472,VALID,302,VALID,0,
2008-05-13, 01:46:04,VALID,1009.01,VALID,0,VALID,95.4211,VALID,0,VALID,22.4684,VALID,220,VALID,0.303516,
2008-05-13, 01:47:04,VALID,1009,VALID,0,VALID,95.36,VALID,0,VALID,22.4472,VALID,220,VALID,0.400391,
2008-05-13, 01:48:04,VALID,1008.99,VALID,0,VALID,95.2228,VALID,0,VALID,22.4082,VALID,212,VALID,0.515625,
2008-05-13, 01:49:04,VALID,1009.02,VALID,0,VALID,95.1923,VALID,0,VALID,22.4082,VALID,198,VALID,0.542969,
2008-05-13, 01:50:04,VALID,1009.01,VALID,0,VALID,95.2685,VALID,0,VALID,22.3887,VALID,197,VALID,0.466797,
2008-05-13, 01:51:04,VALID,1009.01,VALID,0,VALID,95.2838,VALID,0,VALID,22.4082,VALID,197,VALID,0.389062,
2008-05-13, 01:52:04,VALID,1009.06,VALID,0,VALID,95.2838,VALID,0,VALID,22.4294,VALID,197,VALID,0.365625,
2008-05-13, 01:53:04,VALID,1009.05,VALID,0,VALID,95.3448,VALID,0,VALID,22.4277,VALID,197,VALID,0.307031,
2008-05-13, 01:54:04,VALID,1009.06,VALID,0,VALID,95.3448,VALID,0,VALID,22.4082,VALID,198,VALID,0.172656,
2008-05-13, 01:55:04,VALID,1009.06,VALID,0,VALID,95.3829,VALID,0,VALID,22.4489,VALID,197,VALID,0.141797,
2008-05-13, 01:56:04,VALID,1009.06,VALID,0,VALID,95.4058,VALID,0,VALID,22.4472,VALID,197,VALID,0.117969,
2008-05-13, 01:57:04,VALID,1009,VALID,0,VALID,95.3982,VALID,0,VALID,22.4667,VALID,197,VALID,0.00117188,
2008-05-13, 01:58:04,VALID,1009.02,VALID,0,VALID,95.4058,VALID,0,VALID,22.4667,VALID,197,VALID,0.1,
2008-05-13, 01:59:04,VALID,1009.02,VALID,0,VALID,95.3982,VALID,0,VALID,22.4667,VALID,197,VALID,0.209375,
2008-05-13, 02:00:04,VALID,1008.99,VALID,0,VALID,95.4058,VALID,0,VALID,22.5073,VALID,197,VALID,0.1625,
2008-05-13, 02:01:04,VALID,1008.97,VALID,0,VALID,95.3753,VALID,0,VALID,22.4667,VALID,197,VALID,0.235547,
2008-05-13, 02:02:04,VALID,1008.95,VALID,0,VALID,95.3448,VALID,0,VALID,22.4472,VALID,198,VALID,0.197266,
2008-05-13, 02:03:04,VALID,1008.95,VALID,0,VALID,95.2609,VALID,0,VALID,22.4472,VALID,197,VALID,0.277344,
2008-05-13, 02:04:04,VALID,1008.96,VALID,0,VALID,95.299,VALID,0,VALID,22.4472,VALID,197,VALID,0.241406,
2008-05-13, 02:05:04,VALID,1008.96,VALID,0,VALID,95.2685,VALID,0,VALID,22.4684,VALID,197,VALID,0,
2008-05-13, 02:06:04,VALID,1008.96,VALID,0,VALID,95.2533,VALID,0,VALID,22.4277,VALID,197,VALID,0,
2008-05-13, 02:07:04,VALID,1008.95,VALID,0,VALID,95.2228,VALID,0,VALID,22.4277,VALID,197,VALID,0,
2008-05-13, 02:08:04,VALID,1008.94,VALID,0,VALID,95.1694,VALID,0,VALID,22.3887,VALID,197,VALID,0,
2008-05-13, 02:09:04,VALID,1008.93,VALID,0,VALID,95.1999,VALID,0,VALID,22.3887,VALID,197,VALID,0,
2008-05-13, 02:10:04,VALID,1008.95,VALID,0,VALID,95.2609,VALID,0,VALID,22.3887,VALID,197,VALID,0,
2008-05-13, 02:11:04,VALID,1008.96,VALID,0,VALID,95.2609,VALID,0,VALID,22.4099,VALID,197,VALID,0,
2008-05-13, 02:12:04,VALID,1008.96,VALID,0,VALID,95.2914,VALID,0,VALID,22.4082,VALID,197,VALID,0,
2008-05-13, 02:13:04,VALID,1008.98,VALID,0,VALID,95.3219,VALID,0,VALID,22.4099,VALID,197,VALID,0,
2008-05-13, 02:14:04,VALID,1008.96,VALID,0,VALID,95.3448,VALID,0.105969,VALID,22.4294,VALID,197,VALID,0,
2008-05-13, 02:15:04,VALID,1008.94,VALID,0,VALID,95.3448,VALID,0,VALID,22.4082,VALID,197,VALID,0,
2008-05-13, 02:16:04,VALID,1008.89,VALID,0,VALID,95.3219,VALID,0,VALID,22.3887,VALID,197,VALID,0,
2008-05-13, 02:17:04,VALID,1008.86,VALID,0,VALID,95.2075,VALID,0,VALID,22.3693,VALID,197,VALID,0,
2008-05-13, 02:18:04,VALID,1008.85,VALID,0,VALID,95.2152,VALID,0,VALID,22.3498,VALID,197,VALID,0.335156,
2008-05-13, 02:19:04,VALID,1008.84,VALID,0,VALID,95.1923,VALID,0,VALID,22.3303,VALID,197,VALID,0.230859,
2008-05-13, 02:20:04,VALID,1008.87,VALID,0,VALID,95.1465,VALID,0,VALID,22.3108,VALID,197,VALID,0,
2008-05-13, 02:21:04,VALID,1008.87,VALID,0,VALID,95.1236,VALID,0,VALID,22.2914,VALID,198,VALID,0,
2008-05-13, 02:22:04,VALID,1008.92,VALID,0,VALID,95.116,VALID,0,VALID,22.2507,VALID,197,VALID,0,
2008-05-13, 02:23:04,VALID,1008.89,VALID,0,VALID,95.2457,VALID,0,VALID,22.2719,VALID,197,VALID,0,
2008-05-13, 02:24:04,VALID,1008.9,VALID,0,VALID,95.3905,VALID,0,VALID,22.3303,VALID,201,VALID,0.333203,
2008-05-13, 02:25:04,VALID,1008.91,VALID,0,VALID,95.4211,VALID,0,VALID,22.3498,VALID,262,VALID,0.223047,
2008-05-13, 02:26:04,VALID,1008.9,VALID,0,VALID,95.4058,VALID,0,VALID,22.3693,VALID,262,VALID,0.263672,
2008-05-13, 02:27:04,VALID,1008.87,VALID,0,VALID,95.3448,VALID,0,VALID,22.3693,VALID,262,VALID,0.217578,
2008-05-13, 02:28:04,VALID,1008.86,VALID,0,VALID,95.3372,VALID,0.105969,VALID,22.3676,VALID,262,VALID,0.0960938,
2008-05-13, 02:29:04,VALID,1008.85,VALID,0,VALID,95.36,VALID,0,VALID,22.3693,VALID,262,VALID,0.0113281,
2008-05-13, 02:30:04,VALID,1008.86,VALID,0,VALID,95.3448,VALID,0.105969,VALID,22.3693,VALID,262,VALID,0.0542969,
2008-05-13, 02:31:04,VALID,1008.87,VALID,0,VALID,95.3448,VALID,0,VALID,22.3693,VALID,262,VALID,0.173047,
2008-05-13, 02:32:04,VALID,1008.89,VALID,0,VALID,95.3677,VALID,0.105969,VALID,22.3693,VALID,262,VALID,0.231641,
2008-05-13, 02:33:04,VALID,1008.89,VALID,0,VALID,95.3448,VALID,0,VALID,22.3693,VALID,262,VALID,0.291406,
2008-05-13, 02:34:04,VALID,1008.89,VALID,0,VALID,95.3524,VALID,0,VALID,22.3498,VALID,262,VALID,0.285937,
2008-05-13, 02:35:04,VALID,1008.84,VALID,0,VALID,95.4058,VALID,0,VALID,22.3498,VALID,262,VALID,0.38125,
2008-05-13, 02:36:04,VALID,1008.84,VALID,0,VALID,95.3295,VALID,0,VALID,22.3303,VALID,262,VALID,0.283594,
2008-05-13, 02:37:04,VALID,1008.84,VALID,0,VALID,95.36,VALID,0.105969,VALID,22.332,VALID,262,VALID,0.26875,
2008-05-13, 02:38:04,VALID,1008.87,VALID,0,VALID,95.4363,VALID,0,VALID,22.3303,VALID,262,VALID,0.235938,
2008-05-13, 02:39:04,VALID,1008.86,VALID,0,VALID,95.4668,VALID,0,VALID,22.3515,VALID,262,VALID,0.211719,
2008-05-13, 02:40:04,VALID,1008.89,VALID,0,VALID,95.3905,VALID,0,VALID,22.3108,VALID,262,VALID,0.203516,
2008-05-13, 02:41:04,VALID,1008.88,VALID,0,VALID,95.3295,VALID,0.105969,VALID,22.3108,VALID,262,VALID,0.084375,
2008-05-13, 02:42:04,VALID,1008.9,VALID,0,VALID,95.3067,VALID,0,VALID,22.2914,VALID,262,VALID,0.0359375,
2008-05-13, 02:43:04,VALID,1008.87,VALID,0,VALID,95.2228,VALID,0.105969,VALID,22.2507,VALID,262,VALID,0.233594,
2008-05-13, 02:44:04,VALID,1008.86,VALID,0,VALID,95.2914,VALID,0,VALID,22.2524,VALID,262,VALID,0.253125,
2008-05-13, 02:45:04,VALID,1008.89,VALID,0,VALID,95.2304,VALID,0,VALID,22.2329,VALID,262,VALID,0.251172,
2008-05-13, 02:46:04,VALID,1008.89,VALID,0,VALID,95.2685,VALID,0.105969,VALID,22.2134,VALID,312,VALID,0.467969,
2008-05-13, 02:47:04,VALID,1008.94,VALID,0,VALID,95.2762,VALID,0.105969,VALID,22.2134,VALID,330,VALID,0.257813,
2008-05-13, 02:48:04,VALID,1008.93,VALID,0,VALID,95.3829,VALID,0,VALID,22.2134,VALID,330,VALID,0.280859,
2008-05-13, 02:49:04,VALID,1008.97,VALID,0,VALID,95.3753,VALID,0,VALID,22.2329,VALID,330,VALID,0.276563,
2008-05-13, 02:50:04,VALID,1008.96,VALID,0,VALID,95.3372,VALID,0,VALID,22.2134,VALID,330,VALID,0.285156,
2008-05-13, 02:51:04,VALID,1008.96,VALID,0,VALID,95.3448,VALID,0,VALID,22.2134,VALID,330,VALID,0.172656,
2008-05-13, 02:52:04,VALID,1008.96,VALID,0,VALID,95.3753,VALID,0,VALID,22.2134,VALID,330,VALID,0.244531,
2008-05-13, 02:53:04,VALID,1008.97,VALID,0,VALID,95.2609,VALID,0,VALID,22.155,VALID,330,VALID,0.190234,
2008-05-13, 02:54:04,VALID,1008.96,VALID,0,VALID,95.238,VALID,0,VALID,22.155,VALID,330,VALID,0.129688,
2008-05-13, 02:55:04,VALID,1009,VALID,0,VALID,95.3295,VALID,0,VALID,22.1355,VALID,330,VALID,0.215625,
2008-05-13, 02:56:04,VALID,1009,VALID,0,VALID,95.3524,VALID,0,VALID,22.1567,VALID,330,VALID,0.147656,
2008-05-13, 02:57:04,VALID,1009,VALID,0,VALID,95.3905,VALID,0,VALID,22.1355,VALID,330,VALID,0.0246094,
2008-05-13, 02:58:04,VALID,1008.99,VALID,0,VALID,95.3982,VALID,0.105969,VALID,22.1355,VALID,330,VALID,0,
2008-05-13, 02:59:04,VALID,1008.99,VALID,0,VALID,95.4058,VALID,0,VALID,22.1355,VALID,330,VALID,0,
2008-05-13, 03:00:04,VALID,1009.04,VALID,0,VALID,95.3905,VALID,0,VALID,22.0966,VALID,330,VALID,0,
2008-05-13, 03:01:04,VALID,1009.04,VALID,0,VALID,95.3982,VALID,0,VALID,22.0966,VALID,330,VALID,0,
2008-05-13, 03:02:04,VALID,1009.07,VALID,0,VALID,95.4592,VALID,0.105969,VALID,22.1161,VALID,330,VALID,0.138672,
2008-05-13, 03:03:04,VALID,1009.06,VALID,0,VALID,95.4439,VALID,0,VALID,22.0771,VALID,330,VALID,0.0382813,
2008-05-13, 03:04:04,VALID,1009.07,VALID,0,VALID,95.3905,VALID,0,VALID,22.0576,VALID,330,VALID,0.222266,
2008-05-13, 03:05:04,VALID,1009.02,VALID,0,VALID,95.3524,VALID,0,VALID,22.0382,VALID,330,VALID,0.257422,
2008-05-13, 03:06:04,VALID,1008.99,VALID,0,VALID,95.3524,VALID,0.105969,VALID,21.9992,VALID,12,VALID,0.424609,
2008-05-13, 03:07:04,VALID,1009.02,VALID,0,VALID,95.3677,VALID,0,VALID,21.9992,VALID,56,VALID,0.445703,
2008-05-13, 03:08:04,VALID,1009.01,VALID,0,VALID,95.3295,VALID,0,VALID,21.9603,VALID,56,VALID,0.151953,
2008-05-13, 03:09:04,VALID,1009.02,VALID,0,VALID,95.36,VALID,0.105969,VALID,21.9603,VALID,56,VALID,0.187891,
2008-05-13, 03:10:04,VALID,1009.03,VALID,0,VALID,95.4134,VALID,0,VALID,21.9603,VALID,56,VALID,0.116016,
2008-05-13, 03:11:04,VALID,1009.02,VALID,0,VALID,95.4897,VALID,0,VALID,21.9797,VALID,56,VALID,0.212109,
2008-05-13, 03:12:04,VALID,1009.01,VALID,0,VALID,95.5126,VALID,0,VALID,21.9797,VALID,56,VALID,0.273828,
2008-05-13, 03:13:04,VALID,1008.97,VALID,0,VALID,95.5202,VALID,0.105969,VALID,21.9797,VALID,56,VALID,0.140234,
2008-05-13, 03:14:04,VALID,1008.96,VALID,0,VALID,95.4973,VALID,0,VALID,21.9814,VALID,56,VALID,0,
2008-05-13, 03:15:04,VALID,1008.95,VALID,0,VALID,95.4516,VALID,0,VALID,21.9408,VALID,56,VALID,0.128125,
2008-05-13, 03:16:04,VALID,1008.94,VALID,0,VALID,95.4439,VALID,0,VALID,21.9213,VALID,56,VALID,0,
2008-05-13, 03:17:04,VALID,1008.94,VALID,0,VALID,95.5126,VALID,0,VALID,21.9408,VALID,56,VALID,0.170312,
2008-05-13, 03:18:04,VALID,1008.93,VALID,0,VALID,95.5202,VALID,0,VALID,21.9213,VALID,56,VALID,0,
2008-05-13, 03:19:04,VALID,1008.93,VALID,0,VALID,95.5278,VALID,0,VALID,21.923,VALID,56,VALID,0,
2008-05-13, 03:20:04,VALID,1008.89,VALID,0,VALID,95.5354,VALID,0,VALID,21.923,VALID,56,VALID,0,
2008-05-13, 03:21:04,VALID,1008.93,VALID,0,VALID,95.5354,VALID,0,VALID,21.9018,VALID,56,VALID,0,
2008-05-13, 03:22:04,VALID,1008.92,VALID,0,VALID,95.5659,VALID,0,VALID,21.923,VALID,56,VALID,0.0246094,
2008-05-13, 03:23:04,VALID,1008.91,VALID,0,VALID,95.6041,VALID,0,VALID,21.923,VALID,56,VALID,0.233594,
2008-05-13, 03:24:04,VALID,1008.91,VALID,0,VALID,95.5964,VALID,0,VALID,21.8824,VALID,56,VALID,0.323438,
2008-05-13, 03:25:04,VALID,1008.89,VALID,0,VALID,95.5812,VALID,0,VALID,21.8824,VALID,56,VALID,0.204297,
2008-05-13, 03:26:04,VALID,1008.88,VALID,0,VALID,95.6117,VALID,0,VALID,21.8824,VALID,56,VALID,0.148047,
2008-05-13, 03:27:04,VALID,1008.87,VALID,0,VALID,95.6193,VALID,0,VALID,21.8824,VALID,56,VALID,0,
2008-05-13, 03:28:04,VALID,1008.87,VALID,0,VALID,95.6498,VALID,0,VALID,21.9035,VALID,56,VALID,0,
2008-05-13, 03:29:04,VALID,1008.85,VALID,0,VALID,95.6269,VALID,0,VALID,21.8629,VALID,56,VALID,0,
2008-05-13, 03:30:04,VALID,1008.83,VALID,0,VALID,95.5964,VALID,0,VALID,21.8239,VALID,56,VALID,0,
2008-05-13, 03:31:04,VALID,1008.85,VALID,0,VALID,95.5964,VALID,0,VALID,21.8256,VALID,56,VALID,0,
2008-05-13, 03:32:04,VALID,1008.88,VALID,0,VALID,95.6346,VALID,0,VALID,21.8239,VALID,56,VALID,0,
2008-05-13, 03:33:04,VALID,1008.87,VALID,0,VALID,95.6574,VALID,0,VALID,21.8239,VALID,56,VALID,0,
2008-05-13, 03:34:04,VALID,1008.9,VALID,0,VALID,95.6727,VALID,0,VALID,21.8645,VALID,56,VALID,0.189844,
2008-05-13, 03:35:04,VALID,1008.9,VALID,0,VALID,95.7108,VALID,0,VALID,21.8434,VALID,56,VALID,0.241406,
2008-05-13, 03:36:04,VALID,1008.88,VALID,0,VALID,95.7108,VALID,0,VALID,21.8451,VALID,56,VALID,0.191797,
2008-05-13, 03:37:04,VALID,1008.87,VALID,0,VALID,95.7108,VALID,0,VALID,21.8434,VALID,56,VALID,0.145703,
2008-05-13, 03:38:04,VALID,1008.82,VALID,0,VALID,95.6422,VALID,0,VALID,21.8239,VALID,56,VALID,0.2375,
2008-05-13, 03:39:04,VALID,1008.78,VALID,0,VALID,95.6346,VALID,0,VALID,21.8451,VALID,56,VALID,0.308203,
2008-05-13, 03:40:04,VALID,1008.81,VALID,0,VALID,95.6346,VALID,0,VALID,21.8061,VALID,56,VALID,0.233984,
2008-05-13, 03:41:04,VALID,1008.79,VALID,0,VALID,95.6269,VALID,0,VALID,21.8061,VALID,56,VALID,0.171484,
2008-05-13, 03:42:04,VALID,1008.78,VALID,0,VALID,95.6727,VALID,0,VALID,21.8045,VALID,56,VALID,0.235938,
2008-05-13, 03:43:04,VALID,1008.8,VALID,0,VALID,95.7261,VALID,0,VALID,21.8061,VALID,56,VALID,0.276563,
2008-05-13, 03:44:04,VALID,1008.79,VALID,0,VALID,95.7185,VALID,0,VALID,21.8256,VALID,56,VALID,0.292578,
2008-05-13, 03:45:04,VALID,1008.81,VALID,0,VALID,95.7108,VALID,0,VALID,21.8045,VALID,56,VALID,0.299609,
2008-05-13, 03:46:04,VALID,1008.83,VALID,0,VALID,95.7032,VALID,0,VALID,21.8045,VALID,56,VALID,0.191406,
2008-05-13, 03:47:04,VALID,1008.85,VALID,0,VALID,95.6956,VALID,0,VALID,21.8045,VALID,56,VALID,0.189453,
2008-05-13, 03:48:04,VALID,1008.87,VALID,0,VALID,95.6651,VALID,0,VALID,21.8045,VALID,56,VALID,0.221875,
2008-05-13, 03:49:04,VALID,1008.87,VALID,0,VALID,95.6269,VALID,0,VALID,21.7655,VALID,56,VALID,0.154687,